Location: Stuttgart
(48.7824°N, 9.1964°E)
Time: 07:47:08
(UTC+02:00)

ISS - Pass Details

Date: 27 January 2019
Orbit: 411 x 421 km, 51.6° (Epoch: 24 October)

Event Time Altitude Azimuth Distance (km) Brightness Sun altitude
Rises 18:18:16 0° 246° (WSW) 2,408 2.1 -10.9°
Reaches altitude 10° 18:20:23 10° 246° (WSW) 1,545 0.6 -11.2°
Maximum altitude 18:23:51 85° 158° (SSE) 446 -3.7 -11.8°
Enters shadow 18:26:08 20° 71° (ENE) 1,067 -2.4 -12.2°
